CW9002 Weather Reports


time (UTC)temp
C
wind
direction
speed
KPH
gust
KPH
rain 1hr
cm
rain 24hr
cm
rain mn
cm
humidity
%
barometer
mb
20260504050706 8 206 3.2 8.0 0.00 0.00 0.00 54 1028.8
20260504050206 8 235 3.2 9.7 0.00 0.00 0.00 54 1028.8
20260504043706 8 194 3.2 14.5 0.00 0.00 0.00 53 1028.7
20260504043205 8 217 1.6 14.5 0.00 0.00 0.00 54 1028.7
20260504040705 8 184 6.4 19.3 0.00 0.00 0.00 54 1028.8
20260504040205 8 180 3.2 11.3 0.00 0.00 0.00 55 1028.8
20260504033206 8 19 1.6 4.8 0.00 0.00 0.00 56 1028.8
20260504030706 8 17 1.6 4.8 0.00 0.00 0.00 57 1029.0
20260504030206 8 17 1.6 4.8 0.00 0.00 0.00 57 1029.1
20260504023206 7 16 3.2 8.0 0.00 0.00 0.00 58 1029.2
20260504020705 7 16 1.6 3.2 0.00 0.00 0.00 61 1029.2
20260504020206 7 15 1.6 4.8 0.00 0.00 0.00 61 1029.1
20260504013707 7 17 1.6 4.8 0.00 0.00 0.00 61 1029.1
20260504013205 7 17 3.2 4.8 0.00 0.00 0.00 60 1029.1
20260504010706 7 16 1.6 3.2 0.00 0.00 0.00 62 1029.0
20260504010206 7 16 1.6 3.2 0.00 0.00 0.00 63 1029.1
20260504003706 8 15 1.6 3.2 0.00 0.00 0.00 61 1028.9
20260504003208 8 15 1.6 3.2 0.00 0.00 0.00 59 1029.0
20260504000705 10 15 0.0 4.8 0.00 0.00 0.00 56 1028.9
20260504000205 10 15 3.2 4.8 0.00 0.00 0.00 51 1028.9
20260503233705 10 16 4.8 11.3 0.00 0.00 0.00 50 1028.9
20260503233206 11 16 1.6 8.0 0.00 0.00 0.00 49 1029.0
20260503230707 11 19 3.2 16.1 0.00 0.00 0.00 49 1029.0
20260503230205 11 17 8.0 16.1 0.00 0.00 0.00 48 1029.1
20260503223205 12 15 8.0 20.9 0.00 0.00 0.00 45 1029.2
20260503220706 12 15 4.8 19.3 0.00 0.00 0.00 46 1029.3
20260503220205 11 15 8.0 19.3 0.00 0.00 0.00 45 1029.2
20260503213205 12 15 3.2 16.1 0.00 0.00 0.00 47 1029.2
20260503210706 11 18 6.4 16.1 0.00 0.00 0.00 48 1029.4
20260503210205 11 17 8.0 19.3 0.00 0.00 0.00 46 1029.5
20260503203705 12 16 4.8 20.9 0.00 0.00 0.00 47 1029.8
20260503200706 12 12 4.8 25.7 0.00 0.00 0.00 45 1029.9
20260503200205 12 18 8.0 25.7 0.00 0.00 0.00 45 1029.9
20260503193705 12 15 4.8 16.1 0.00 0.00 0.00 46 1030.2
20260503193205 11 16 6.4 22.5 0.00 0.00 0.00 47 1030.2
20260503190206 11 17 9.7 19.3 0.00 0.00 0.00 46 1030.8
20260503183705 11 12 8.0 25.7 0.00 0.00 0.00 47 1031.0
20260503183205 11 15 9.7 20.9 0.00 0.00 0.00 46 1031.2
20260503180705 11 20 8.0 22.5 0.00 0.00 0.00 46 1031.2
20260503180206 11 16 8.0 22.5 0.00 0.00 0.00 47 1031.3
20260503173705 10 16 4.8 25.7 0.00 0.00 0.00 49 1031.4
20260503173205 10 17 11.3 19.3 0.00 0.00 0.00 46 1031.5
20260503170705 10 16 6.4 20.9 0.00 0.00 0.00 50 1031.8
20260503170205 10 15 8.0 19.3 0.00 0.00 0.00 48 1031.8
20260503160205 8 17 6.4 25.7 0.00 0.00 0.00 55 1032.2
20260503150706 7 16 8.0 20.9 0.00 0.00 0.00 55 1032.5
20260503150206 7 16 6.4 12.9 0.00 0.00 0.00 57 1032.5
20260503140205 6 223 8.0 19.3 0.00 0.00 0.00 67 1032.7
20260503130705 4 258 1.6 11.3 0.00 0.00 0.00 74 1032.6
20260503130205 3 251 3.2 12.9 0.00 0.00 0.00 74 1032.5
20260503120205 1 209 4.8 9.7 0.00 0.00 0.00 87 1032.3
20260503110705 0 22 0.0 4.8 0.00 0.00 0.00 91 1031.8
20260503110205 0 20 1.6 4.8 0.00 0.00 0.00 91 1031.8
20260503100205 -1 30 1.6 4.8 0.00 0.00 0.00 91 1030.8
20260503090205 0 275 0.0 1.6 0.00 0.00 0.00 90 1030.6
20260503080705 0 279 0.0 1.6 0.00 0.00 0.00 90 1030.3
20260503080205 0 279 0.0 1.6 0.00 0.00 0.00 89 1030.4
20260503070705 0 279 1.6 1.6 0.00 0.00 0.00 87 1030.0
20260503070205 0 279 0.0 3.2 0.00 0.00 0.00 86 1030.0
20260503060205 1 280 0.0 1.6 0.00 0.00 0.00 82 1030.0